Weather in Kaychak

Russia / Kemerovo Oblast     55°44′08″N   88°33′31″E
temp.,
°C
wind,
m/s
gust,
m/s
humid.,
%
clouds,
%
prec.,
mm/h
press.,
hPa
HPBL,
m
27 september, mon
mon2701:000sw26100100 13.9 1019325
04:000w26100100 1.4 1020286
07:000wnw35100100 1.7 1022224
10:00+2nw339587 0.1 1023291
13:00+4nw348394 0.1 1024724
16:00+5w358093 0.3 1024584
19:00+3nw248596 0.8 102588
22:00+2w119290 0.1 102511
28 september, tue
tue2801:00+1sw119462 0.1 102514
04:00−1s119437 0.0 102410
07:00−1se119414 0.0 102310
10:00+3e238632 0.0 1023371
13:00+6e236454 0.0 10211159
16:00+6e336023 0.0 10211114
19:00+2e33785 0.0 102241
22:000ese33855 0.0 102243
29 september, wed
wed2901:00−1ese34885 0.0 102169
04:00−1ese35895 0.0 102095
07:00−1ese4889100 0.0 1018175
10:00+3ese7106996 0.0 1016415
13:00+8ese8105525 0.0 1013877
16:00+9ese795899 0.0 1012909
19:00+5ese61184100 0.4 1012472
22:00+5ese4789100 0.3 1011207
30 september, thu
thu3001:00+5s228993 0.3 101134
04:00+5s2291100 0.0 101138
07:00+5sw2595100 0.8 1011142
10:00+5sw51089100 1.0 1013881
13:00+4sw51089100 1.1 1015857
16:00+3sw51094100 0.2 1015964
19:00+3wsw51193100 0.3 1016968
22:00+2wsw61197100 0.2 1015743
1 october, fri
fri101:00+2wsw61297100 0.6 1015541
04:00+2wsw51097100 0.3 1015496
07:00+2wsw5997100 0.7 1015521
10:00+1wsw4895100 0.3 1015628
13:00+3wsw698191 0.6 10151015
16:00+4wsw6978100 0.3 10141058
19:00+2wsw51185100 0.3 1015881
22:00+1wsw41097100 0.3 1015542